CW0454 Weather Reports


Display with metric or nautical units.
time (UTC)temp
F
wind
direction
speed
MPH
gust
MPH
rain 1hr
in
rain 24hr
in
rain mn
in
humidity
%
barometer
mb
20260507101402 54 254 0.0 1.0 0.00 0.17 0.05 89 1010.8
20260507100402 54 254 1.0 5.0 0.00 0.17 0.05 88 1010.8
20260507095402 54 264 1.0 3.0 0.01 0.17 0.05 89 1010.8
20260507094402 54 260 0.0 2.0 0.01 0.17 0.05 90 1010.7
20260507093403 54 267 0.0 2.0 0.01 0.17 0.05 90 1010.7
20260507092402 54 267 0.0 2.0 0.01 0.17 0.05 90 1011.3
20260507091403 54 267 0.0 1.0 0.01 0.17 0.05 89 1010.9
20260507090402 54 268 0.0 2.0 0.00 0.16 0.04 88 1010.6
20260507085402 54 268 0.0 3.0 0.00 0.16 0.04 88 1010.4
20260507084403 54 240 1.0 3.0 0.00 0.16 0.04 88 1010.6
20260507083402 54 300 0.0 4.0 0.00 0.16 0.04 87 1010.3
20260507082445 54 50 0.0 4.0 0.00 0.16 0.04 86 1010.1
20260507081403 55 307 1.0 4.0 0.00 0.16 0.04 87 1010.1
20260507080403 55 125 1.0 3.0 0.00 0.16 0.04 86 1010.1
20260507075403 55 32 2.0 8.0 0.00 0.16 0.04 85 1009.8
20260507074402 56 190 2.0 8.0 0.00 0.16 0.04 86 1009.6
20260507073402 56 261 2.0 10.0 0.00 0.16 0.04 88 1009.7
20260507072402 56 260 3.0 8.0 0.00 0.16 0.04 88 1009.5
20260507071403 56 273 3.0 11.0 0.00 0.16 0.04 88 1009.3
20260507070403 56 251 2.0 8.0 0.00 0.16 0.04 88 1009.3
20260507065402 56 253 2.0 8.0 0.01 0.16 0.04 89 1009.6
20260507064403 56 282 1.0 6.0 0.01 0.16 0.04 89 1009.3
20260507063424 56 270 2.0 9.0 0.01 0.16 0.04 89 1009.2
20260507062403 56 267 2.0 8.0 0.01 0.16 0.04 89 1009.2
20260507061359 56 255 3.0 9.0 0.00 0.15 0.03 89 1009.6
20260507060358 56 244 1.0 5.0 0.00 0.15 0.03 88 1009.5
20260507055359 57 264 2.0 8.0 0.02 0.14 0.02 87 1009.6
20260507054359 59 278 3.0 9.0 0.02 0.14 0.02 87 1009.6
20260507053359 60 337 1.0 6.0 0.02 0.14 0.02 86 1009.6
20260507052359 61 314 2.0 7.0 0.00 0.12 0.00 82 1009.7
20260507051358 62 298 3.0 9.0 0.00 0.12 0.00 80 1009.8
20260507050359 62 283 2.0 10.0 0.00 0.12 0.00 78 1009.7
20260507045358 63 318 2.0 9.0 0.00 0.12 0.00 77 1009.2
20260507044359 63 260 2.0 12.0 0.00 0.12 0.00 78 1009.3
20260507043358 64 281 4.0 9.0 0.00 0.12 0.00 80 1009.2
20260507042400 64 262 1.0 7.0 0.00 0.12 0.00 81 1009.1
20260507041359 64 236 1.0 5.0 0.00 0.12 0.00 82 1008.8
20260507040359 64 263 2.0 3.0 0.00 0.24 0.12 82 1008.4
20260507035420 64 264 0.0 2.0 0.00 0.12 0.12 82 1008.6
20260507034358 64 263 2.0 7.0 0.00 0.12 0.12 81 1009.0
20260507033359 65 266 2.0 7.0 0.00 0.12 0.12 80 1008.9
20260507032358 65 242 2.0 7.0 0.00 0.12 0.12 80 1008.7
20260507031359 66 264 4.0 10.0 0.00 0.12 0.12 82 1008.5
20260507030359 66 203 1.0 5.0 0.00 0.12 0.12 83 1008.4
20260507025359 66 295 0.0 5.0 0.00 0.12 0.12 83 1008.4
20260507024359 67 240 1.0 8.0 0.00 0.12 0.12 86 1008.3
20260507022442 67 148 0.0 2.0 0.00 0.12 0.12 87 1008.0
20260507021421 67 147 0.0 3.0 0.00 0.12 0.12 87 1008.0
20260507020359 67 145 0.0 1.0 0.00 0.12 0.12 87 1007.7
20260507015359 67 145 0.0 2.0 0.00 0.12 0.12 86 1007.7
20260507014420 67 145 0.0 3.0 0.00 0.12 0.12 86 1008.0
20260507013359 67 146 0.0 3.0 0.00 0.12 0.12 86 1008.1
20260507012359 67 147 1.0 4.0 0.00 0.12 0.12 86 1008.1
20260507011400 67 148 0.0 2.0 0.00 0.12 0.12 86 1008.2
20260507010359 67 148 0.0 2.0 0.00 0.12 0.12 85 1008.1
20260507005359 67 148 0.0 1.0 0.00 0.12 0.12 84 1007.9
20260507004359 68 148 1.0 3.0 0.00 0.12 0.12 84 1007.7
20260507003359 68 148 0.0 2.0 0.00 0.12 0.12 84 1007.8
20260507002400 68 139 2.0 5.0 0.00 0.12 0.12 83 1007.7
20260507001359 68 121 0.0 4.0 0.00 0.12 0.12 83 1007.8
20260507000400 68 118 0.0 4.0 0.00 0.12 0.12 83 1007.6
20260506235400 69 121 0.0 3.0 0.00 0.12 0.12 83 1008.0
20260506234359 69 117 0.0 2.0 0.00 0.12 0.12 82 1007.3
20260506233421 69 117 1.0 6.0 0.00 0.12 0.12 82 1007.5
20260506232359 70 180 1.0 3.0 0.00 0.12 0.12 81 1007.1
20260506231400 70 192 0.0 2.0 0.00 0.12 0.12 81 1007.3
20260506230359 70 165 2.0 7.0 0.00 0.12 0.12 80 1007.2
20260506225400 70 240 1.0 6.0 0.00 0.12 0.12 80 1007.1
20260506224400 70 192 1.0 5.0 0.00 0.12 0.12 80 1007.1
20260506223420 70 136 2.0 5.0 0.00 0.12 0.12 80 1007.2
20260506222400 71 201 2.0 6.0 0.00 0.12 0.12 80 1007.2
20260506221400 71 194 4.0 8.0 0.00 0.12 0.12 79 1007.2
20260506220400 71 210 1.0 6.0 0.00 0.12 0.12 80 1007.2
20260506215400 71 121 2.0 8.0 0.00 0.12 0.12 79 1007.3
20260506214421 71 187 3.0 6.0 0.00 0.12 0.12 79 1007.1
20260506213400 71 194 3.0 7.0 0.00 0.12 0.12 79 1007.1
20260506212400 71 210 1.0 10.0 0.00 0.12 0.12 78 1007.0
20260506211400 71 202 4.0 11.0 0.00 0.12 0.12 78 1007.0
20260506210401 71 129 1.0 9.0 0.00 0.12 0.12 79 1006.8
20260506205400 71 131 4.0 12.0 0.00 0.12 0.12 78 1006.8
20260506204400 71 205 4.0 13.0 0.00 0.12 0.12 78 1006.8
20260506203421 71 238 2.0 8.0 0.00 0.12 0.12 78 1006.7
20260506202400 71 170 3.0 11.0 0.00 0.12 0.12 78 1006.6
20260506201400 72 200 3.0 11.0 0.00 0.12 0.12 77 1006.5
20260506200400 72 132 7.0 11.0 0.00 0.12 0.12 77 1006.6
20260506195401 72 125 3.0 13.0 0.00 0.12 0.12 77 1006.6
20260506194400 72 162 2.0 10.0 0.00 0.12 0.12 77 1006.7
20260506193401 72 197 4.0 8.0 0.00 0.12 0.12 78 1006.6
20260506192400 72 240 1.0 8.0 0.00 0.12 0.12 79 1006.7
20260506191401 71 171 2.0 9.0 0.00 0.12 0.12 80 1006.9
20260506190400 70 216 3.0 8.0 0.00 0.12 0.12 81 1007.0
20260506185401 69 155 4.0 13.0 0.00 0.12 0.12 81 1007.1
20260506184443 69 192 3.0 12.0 0.00 0.12 0.12 81 1007.3
20260506183400 69 174 5.0 14.0 0.00 0.12 0.12 82 1007.4
20260506182401 69 181 3.0 12.0 0.00 0.12 0.12 82 1007.5
20260506181400 68 227 2.0 9.0 0.00 0.12 0.12 84 1007.6
20260506180401 68 58 4.0 14.0 0.00 0.12 0.12 84 1007.7
20260506175422 67 144 6.0 15.0 0.00 0.12 0.12 85 1007.6
20260506174400 67 121 3.0 11.0 0.00 0.12 0.12 86 1007.7
20260506173401 66 150 4.0 15.0 0.00 0.12 0.12 88 1007.8
20260506172400 66 160 3.0 15.0 0.00 0.12 0.12 88 1007.8
20260506171401 66 140 6.0 14.0 0.00 0.12 0.12 89 1007.8
20260506170401 65 116 3.0 13.0 0.00 0.12 0.12 91 1007.9
20260506165401 64 143 6.0 14.0 0.00 0.12 0.12 91 1008.2
20260506164400 64 128 4.0 13.0 0.00 0.12 0.12 92 1008.3
20260506163443 64 123 5.0 14.0 0.00 0.12 0.12 92 1008.2
20260506162401 64 124 3.0 11.0 0.00 0.12 0.12 93 1008.0
20260506161401 63 128 4.0 10.0 0.00 0.12 0.12 93 1008.2
20260506160401 62 127 5.0 14.0 0.00 0.12 0.12 93 1008.5
20260506155401 63 170 2.0 10.0 0.02 0.12 0.12 93 1008.6
20260506154401 62 133 6.0 16.0 0.02 0.12 0.12 92 1008.4
20260506153401 62 103 5.0 13.0 0.01 0.11 0.11 92 1008.3
20260506152401 62 129 6.0 14.0 0.01 0.11 0.11 91 1008.8
20260506151401 62 128 3.0 10.0 0.01 0.11 0.11 91 1009.0
20260506150400 62 120 3.0 11.0 0.01 0.11 0.11 90 1009.3
20260506145422 62 117 2.0 10.0 0.07 0.08 0.08 89 1009.3
20260506144402 63 135 3.0 8.0 0.04 0.05 0.05 88 1009.3
20260506143443 63 142 2.0 10.0 0.03 0.04 0.04 88 1009.2
20260506142401 63 136 3.0 9.0 0.02 0.03 0.03 86 1009.2
20260506141401 64 125 2.0 8.0 0.01 0.02 0.02 85 1009.3
20260506140401 64 80 1.0 10.0 0.00 0.01 0.01 83 1009.4
20260506135401 65 154 2.0 10.0 0.00 0.00 0.00 82 1009.7
20260506134401 65 105 3.0 9.0 0.00 0.00 0.00 79 1009.8
20260506133402 66 142 2.0 13.0 0.00 0.00 0.00 80 1009.6
20260506132401 66 123 4.0 10.0 0.00 0.00 0.00 78 1009.3
20260506131402 66 147 3.0 12.0 0.00 0.00 0.00 78 1009.2
20260506130422 66 128 4.0 11.0 0.00 0.00 0.00 78 1009.0
20260506125422 66 122 3.0 8.0 0.00 0.00 0.00 77 1008.9
20260506124402 66 167 1.0 12.0 0.00 0.00 0.00 77 1009.1
20260506123401 66 130 4.0 10.0 0.00 0.00 0.00 78 1009.2
20260506122402 66 129 3.0 12.0 0.00 0.00 0.00 78 1009.4
20260506121401 66 133 6.0 12.0 0.00 0.00 0.00 77 1009.4
20260506120402 66 140 4.0 12.0 0.00 0.00 0.00 77 1009.4
20260506115422 66 123 5.0 12.0 0.00 0.00 0.00 76 1009.3
20260506114402 66 173 3.0 10.0 0.00 0.00 0.00 77 1009.2
20260506113422 66 144 6.0 20.0 0.00 0.00 0.00 77 1009.0
20260506112423 66 143 4.0 11.0 0.00 0.00 0.00 77 1008.9
20260506111402 65 118 3.0 11.0 0.00 0.00 0.00 78 1008.8
20260506110444 65 135 5.0 10.0 0.00 0.00 0.00 78 1008.7
20260506105403 65 135 4.0 16.0 0.00 0.00 0.00 77 1008.6
20260506104402 65 124 9.0 16.0 0.00 0.00 0.00 77 1008.5
20260506103401 65 136 4.0 14.0 0.00 0.00 0.00 77 1008.5
20260506102402 65 126 6.0 13.0 0.00 0.00 0.00 78 1008.6